This is the latest recevied weather packets stored in our database for station/object KC8SWY-15. If no packets are shown the sender has not sent any weather packets the latest 1 day(s).
| Time | Temp. | Humidity | Pressure | Rain* | Wind** | Luminosity | Snow |
|---|---|---|---|---|---|---|---|
| 1778039967 | 6.67° C | 83% | 1010.3 hPa | 0 mm | 0 m/s | - | - |
| 1778039667 | 6.67° C | 81% | 1010.4 hPa | 0 mm | 0 m/s | - | - |
| 1778039367 | 6.67° C | 81% | 1010.4 hPa | 0 mm | 0 m/s | - | - |
| 1778039067 | 6.67° C | 81% | 1010.5 hPa | 0 mm | 0 m/s | - | - |
| 1778038767 | 6.67° C | 81% | 1010.5 hPa | 0 mm | 0 m/s | - | - |
| 1778038467 | 7.22° C | 80% | 1010.3 hPa | 0 mm | 0 m/s | - | - |
| 1778038167 | 6.67° C | 80% | 1010.3 hPa | 0 mm | 0 m/s | - | - |
| 1778037867 | 7.22° C | 79% | 1010.2 hPa | 0 mm | 0 m/s | - | - |
| 1778037567 | 7.22° C | 79% | 1010.3 hPa | 0 mm | 0 m/s | - | - |
| 1778037267 | 7.22° C | 78% | 1010.2 hPa | 0 mm | 0 m/s | - | - |
| 1778036967 | 7.22° C | 79% | 1010.2 hPa | 0 mm | 0 m/s | - | - |
| 1778036667 | 7.22° C | 78% | 1010.2 hPa | 0 mm | 0 m/s | - | - |
| 1778036367 | 7.22° C | 77% | 1010.2 hPa | 0 mm | 0 m/s | - | - |
| 1778036067 | 7.22° C | 76% | 1010.1 hPa | 0 mm | 0 m/s | - | - |
| 1778035767 | 7.22° C | 76% | 1010 hPa | 0 mm | 0 m/s | - | - |
| 1778035467 | 7.22° C | 74% | 1009.9 hPa | 0 mm | 0 m/s | - | - |
| 1778035167 | 7.22° C | 70% | 1010 hPa | 0 mm | 0 m/s | - | - |
| 1778034867 | 7.22° C | 72% | 1009.9 hPa | 0 mm | 0 m/s | - | - |
| 1778034567 | 7.22° C | 72% | 1009.8 hPa | 0 mm | 0 m/s | - | - |
| 1778034267 | 7.78° C | 75% | 1009.8 hPa | 0 mm | 0 m/s | - | - |
| 1778033967 | 7.78° C | 74% | 1009.9 hPa | 0 mm | 0 m/s | - | - |
| 1778033667 | 7.78° C | 72% | 1009.9 hPa | 0 mm | 0 m/s | - | - |
| 1778033367 | 7.78° C | 74% | 1009.8 hPa | 0 mm | 0 m/s | - | - |
| 1778033067 | 7.78° C | 72% | 1009.8 hPa | 0 mm | 0 m/s | - | - |
| 1778032767 | 7.78° C | 72% | 1009.7 hPa | 0 mm | 0 m/s | - | - |
* Rain latest hour (hover to see other rain measurements)
** Current wind speed in m/s (hover to see current wind gust speed)